Theta_e
310 310 310 310 310 310 310 311 311 312 312 312 312 311 311 313 313 313 315 318 321 325 326 325 325 328 331 331 329 327 326 326 325 327 329 330 330 329 328 328 328 327 326 326 325 323 323 323 323 323 323 326 326 326 327 326 325 325 324 324 324 324 322
309 309 309 309 309 309 310 310 310 311 311 312 312 312 311 311 313 313 314 314 317 320 325 326 326 326 328 330 329 327 327 327 326 326 327 329 330 329 329 328 328 328 327 326 325 324 323 322 322 322 324 327 327 326 327 327 327 326 325 325 325 326 325
308 308 308 308 309 309 309 309 310 310 311 311 312 312 312 311 311 312 313 314 315 316 319 323 326 326 327 328 329 329 328 328 327 326 326 328 329 329 329 328 328 329 328 327 326 326 325 324 323 323 325 326 325 325 327 328 328 327 327 326 326 326 326
307 307 307 307 308 308 308 309 309 309 310 310 311 311 312 312 312 312 313 314 314 315 316 318 322 325 327 327 327 328 329 329 328 327 327 327 328 329 329 329 329 329 329 329 328 327 327 326 324 324 325 324 322 324 328 328 328 328 328 327 326 326 326
306 306 307 307 307 307 307 308 308 309 309 309 310 310 311 312 313 313 313 314 314 315 316 317 318 322 325 327 328 328 328 329 329 328 328 327 327 328 329 329 329 329 329 329 329 328 328 327 326 325 325 324 321 324 328 328 328 327 328 328 327 326 327
306 306 306 306 306 306 306 307 307 308 308 308 309 309 310 311 312 312 313 314 314 314 315 316 317 319 322 325 328 329 328 329 330 329 329 328 328 328 328 329 329 329 329 329 329 329 328 328 328 327 326 325 323 324 328 328 327 327 327 327 326 325 326
305 305 305 305 305 305 305 305 306 306 307 307 308 308 309 310 310 311 312 313 314 314 313 314 316 317 319 321 324 326 328 330 330 330 329 329 328 328 328 328 329 328 329 329 329 329 329 328 328 327 327 326 325 325 328 327 326 326 325 324 323 323 323
304 305 305 305 305 305 304 304 304 305 305 305 306 307 307 308 309 310 310 311 313 313 313 314 314 316 318 319 321 322 326 330 330 330 330 329 329 328 328 328 328 328 328 329 329 329 328 328 328 328 327 327 325 326 328 327 326 327 325 321 322 324 324
304 304 304 304 304 304 304 304 304 304 304 304 305 305 305 307 308 309 310 311 312 313 313 314 314 316 317 318 320 320 322 326 329 330 330 330 329 329 329 328 328 328 328 328 329 329 328 328 328 328 328 327 326 325 327 327 327 327 325 321 321 323 325
303 303 303 303 303 303 303 303 303 303 303 303 304 304 305 306 307 308 310 310 311 312 313 314 314 315 316 317 319 320 321 323 326 329 329 330 330 329 329 328 328 328 328 328 329 329 329 328 328 328 328 327 327 325 325 326 327 327 325 322 320 319 321
302 302 302 302 302 302 302 302 302 302 303 303 303 304 304 305 305 307 308 309 310 311 313 314 314 315 315 316 318 319 320 320 322 325 328 330 330 329 329 329 328 328 328 328 329 329 329 329 328 329 328 327 327 326 325 326 327 327 326 324 321 319 321
302 302 302 301 301 301 301 302 302 302 302 302 303 303 303 304 305 306 307 308 309 310 311 312 313 314 315 316 317 318 319 320 321 321 324 329 330 329 329 328 329 329 328 328 329 329 330 330 329 328 328 328 327 327 327 326 326 328 327 324 321 321 323
302 301 301 301 301 301 301 301 302 302 302 302 302 303 303 303 304 305 306 307 307 308 310 311 313 314 314 315 316 317 319 320 321 321 322 326 329 329 329 328 328 328 328 328 329 330 330 330 329 329 328 328 328 328 328 327 326 328 326 324 321 320 322
302 301 301 301 301 301 301 301 301 301 302 302 302 302 302 303 303 304 304 305 306 307 308 310 311 313 314 314 315 316 317 319 321 322 322 324 327 329 329 328 328 328 327 328 329 330 330 330 330 329 329 328 329 328 328 328 328 327 324 322 320 317 319
302 301 301 301 301 301 301 301 301 301 301 301 301 301 302 302 303 303 304 304 305 306 307 309 310 312 313 314 314 315 316 318 319 321 322 324 325 327 329 329 328 328 328 328 330 330 330 330 330 329 329 329 329 329 329 328 328 327 322 319 317 313 314
301 301 301 301 301 301 301 301 301 301 301 301 301 301 301 302 302 302 303 303 304 305 306 307 309 311 313 314 315 315 315 316 318 319 321 323 324 326 328 329 329 329 328 328 329 330 330 330 330 329 329 329 329 329 329 329 328 326 323 319 315 311 310
301 301 301 301 301 301 301 301 301 301 301 300 301 301 301 301 302 302 302 303 303 304 304 306 307 309 311 313 315 315 315 315 316 318 320 321 323 324 326 328 329 329 329 328 328 328 329 330 330 329 329 330 330 329 329 330 328 326 322 318 315 312 309
301 302 302 301 301 301 301 301 301 301 300 300 300 300 300 301 301 301 302 302 303 303 304 305 306 308 310 312 314 315 315 315 315 317 318 320 322 323 325 327 328 329 328 328 328 328 328 329 329 329 330 330 330 330 330 330 328 325 322 318 315 312 310
301 301 301 301 301 301 301 301 300 300 300 300 300 300 300 300 300 300 301 301 302 302 303 304 305 306 308 310 313 315 315 316 315 316 317 319 320 322 324 326 328 329 329 328 328 328 327 328 329 329 329 330 330 331 330 329 327 324 321 318 315 311 309
301 301 301 301 301 301 301 300 300 300 299 299 299 299 299 299 299 299 299 300 301 301 302 303 304 305 306 309 311 313 315 315 316 316 317 318 320 322 323 325 327 329 329 328 327 328 327 327 328 329 329 329 330 330 330 328 325 323 320 316 313 310 308
301 301 301 301 301 301 301 300 299 299 299 299 299 299 299 298 298 298 299 299 299 300 301 302 303 304 305 307 310 312 314 315 315 316 316 317 319 321 322 324 327 328 329 328 328 328 327 327 327 328 328 329 329 330 328 326 323 321 318 315 311 309 308
301 301 301 301 301 300 300 299 299 298 298 298 298 298 298 298 298 298 298 298 299 299 300 301 302 303 304 306 308 311 313 314 315 315 316 317 319 321 322 324 325 327 328 328 328 328 328 327 327 327 327 328 329 329 327 324 322 319 316 314 311 308 307
301 301 301 300 300 299 299 298 298 298 298 298 297 297 297 297 297 297 298 298 298 299 299 300 301 302 303 305 307 310 313 314 315 315 316 317 319 320 322 323 323 325 327 328 328 328 328 327 326 326 327 327 328 329 327 323 320 317 315 313 310 307 307
300 300 300 299 299 298 298 298 298 297 297 297 297 297 297 297 297 297 297 298 298 298 299 299 300 301 302 303 305 308 312 314 315 315 316 317 319 320 322 323 322 323 326 328 327 328 327 327 327 326 326 326 327 327 327 323 318 315 314 312 309 307 308
300 299 299 298 298 298 298 298 297 297 297 297 296 296 296 296 296 297 297 297 298 298 298 299 300 301 302 303 304 306 310 314 315 316 316 317 318 320 322 322 321 322 326 327 326 327 327 326 327 327 326 326 326 326 326 325 321 316 314 312 309 308 309
299 299 298 298 298 297 297 297 297 297 297 296 296 296 296 296 296 296 297 297 298 298 299 299 299 301 302 303 304 305 307 311 315 316 317 317 318 320 321 322 322 323 325 326 325 326 326 326 326 326 325 324 325 325 326 326 325 322 319 316 313 310 311
299 298 298 297 297 297 297 296 296 296 296 295 295 295 295 295 296 296 296 297 298 298 299 299 300 301 302 303 304 305 306 309 313 316 317 317 319 320 321 322 322 323 324 324 324 324 324 324 324 324 323 323 323 325 324 324 325 323 321 320 319 317 316
298 297 297 297 296 296 296 296 295 295 295 294 294 294 294 295 295 296 296 297 298 298 299 300 300 301 303 304 305 306 307 308 312 316 317 317 319 320 320 321 322 322 323 323 323 323 322 322 321 320 320 320 321 322 321 320 320 319 318 318 319 319 316
297 297 296 296 296 295 295 294 294 294 293 293 293 293 294 294 295 295 296 297 298 299 300 300 302 302 303 305 306 307 308 308 311 315 316 316 318 319 320 320 321 321 321 321 322 322 322 321 318 317 317 317 317 316 315 314 314 314 314 314 314 314 312
297 296 296 296 295 294 294 293 293 293 293 293 293 293 293 294 294 295 296 297 298 299 300 301 303 304 305 306 307 307 308 309 312 315 316 316 317 318 319 320 321 321 321 321 321 321 321 319 316 315 315 313 311 311 309 309 309 310 311 311 311 310 309
297 296 296 295 294 294 293 292 292 292 292 292 292 293 293 294 294 295 296 297 298 299 301 302 305 306 306 307 308 308 308 310 312 315 316 316 317 318 319 319 320 321 320 320 320 319 319 319 317 315 314 310 308 307 305 305 306 306 307 308 308 307 306
297 296 295 295 294 293 293 292 292 292 292 292 292 293 293 294 295 296 297 297 298 299 300 303 306 308 309 309 309 309 310 311 313 315 316 316 316 317 318 318 319 320 320 319 318 316 317 318 316 314 312 310 306 303 302 304 305 305 304 304 303 303 302
296 296 295 294 294 293 292 292 291 291 291 292 292 293 294 295 296 298 298 299 299 300 301 303 306 309 310 311 310 310 310 312 314 315 315 315 314 314 315 316 316 316 316 317 316 315 315 317 316 312 310 309 306 302 300 302 304 304 303 301 299 298 296
296 296 295 295 293 292 292 291 291 291 291 291 292 293 293 294 295 297 298 299 300 302 304 306 308 309 311 312 312 311 311 313 314 314 313 312 312 311 312 313 313 313 313 314 315 314 314 315 315 313 310 311 310 306 302 301 301 301 300 297 295 293 292
296 296 295 294 293 291 291 291 290 290 290 291 292 293 293 293 294 295 296 298 300 303 305 307 309 310 311 312 313 312 312 313 314 313 312 311 311 310 310 310 311 311 311 312 312 312 312 312 312 311 310 311 310 306 302 300 299 298 295 293 291 290 289
295 295 295 294 292 291 290 290 290 290 290 290 291 293 293 292 293 294 294 295 298 301 305 307 309 310 311 312 312 311 312 313 313 312 312 311 310 309 308 309 310 309 309 309 309 309 309 308 308 308 308 307 305 302 300 298 296 294 292 291 290 289 289
295 295 295 294 292 291 290 290 289 289 289 289 291 292 292 292 292 293 293 294 295 298 302 305 308 310 312 312 311 310 311 312 312 311 311 310 308 308 307 307 307 307 306 306 306 306 306 306 306 306 306 303 299 297 295 294 293 292 291 290 290 290 290
Wind_Speed
9 11 11 11 11 11 12 11 10 9 8 8 9 9 9 8 10 12 14 15 16 17 20 22 25 30 34 37 40 40 37 36 37 34 26 22 24 25 25 26 23 17 13 11 11 9 5 5 10 13 15 15 17 17 16 16 15 14 15 14 13 14 16
10 12 12 12 11 11 12 12 11 10 9 8 8 9 10 10 10 11 13 15 17 19 20 21 25 28 32 34 35 38 37 35 36 38 31 26 28 26 22 24 24 21 20 17 15 14 10 6 6 9 13 14 14 17 17 16 16 16 15 14 14 14 16
11 12 12 13 12 11 12 12 12 11 11 9 8 8 9 11 11 12 12 14 16 19 21 22 24 27 29 32 33 35 37 36 36 37 36 33 30 26 24 24 23 23 22 20 19 17 13 9 7 7 13 14 13 15 16 15 15 16 15 14 15 15 16
12 12 12 13 13 13 13 13 12 12 12 11 10 10 9 10 11 12 12 13 15 17 19 22 25 27 28 29 31 34 37 38 40 40 40 38 32 27 27 27 25 26 25 22 21 20 15 11 8 7 11 15 14 13 14 14 14 14 14 14 16 16 17
10 11 11 13 14 14 14 14 13 13 13 13 12 12 11 10 10 11 11 13 15 17 18 19 23 26 28 28 31 36 38 39 42 41 40 41 37 32 31 31 29 27 27 25 22 20 19 16 12 8 9 13 13 12 12 12 12 13 14 14 14 14 14
9 10 10 12 12 13 14 14 15 15 15 15 14 14 13 12 12 12 12 12 13 16 18 19 20 23 26 28 30 34 38 39 40 40 41 42 41 37 35 34 30 27 27 27 23 21 21 19 15 11 10 12 11 12 13 13 12 12 12 12 12 11 11
8 9 10 11 11 12 13 15 16 16 16 17 16 16 15 14 14 14 15 15 14 16 18 20 21 21 23 27 29 30 33 36 39 41 41 42 42 40 38 35 31 29 28 28 25 23 22 20 18 14 12 11 11 13 13 15 16 13 9 9 10 11 12
7 8 9 10 11 12 13 15 16 16 17 18 18 18 17 16 17 17 17 17 17 16 17 19 21 21 21 23 27 29 29 31 37 41 42 41 41 41 41 38 36 34 30 27 28 26 25 23 21 19 15 10 9 11 12 14 17 16 13 10 11 14 15
7 8 9 10 11 12 14 15 16 17 18 19 19 19 18 17 17 17 17 17 17 17 17 18 18 20 21 21 23 26 27 28 32 38 41 41 41 41 41 40 38 37 32 27 28 28 27 26 23 22 20 15 10 9 10 12 14 14 15 14 12 15 16
7 9 10 11 12 13 14 15 17 17 18 19 19 19 19 18 17 18 18 18 18 18 18 18 18 19 21 21 21 23 25 27 29 34 40 42 42 42 41 39 38 38 35 28 27 28 27 27 26 24 23 21 17 12 9 10 12 12 15 15 13 14 16
8 9 10 12 13 14 15 16 17 18 18 18 19 20 20 19 19 18 19 19 19 19 19 19 19 19 19 21 22 22 24 26 29 32 36 41 44 43 40 39 38 38 38 33 29 29 29 28 28 27 25 25 23 18 13 10 11 14 18 16 13 16 20
8 10 11 12 13 14 16 16 17 18 19 19 19 20 20 20 20 19 19 19 19 20 20 20 20 19 20 21 21 22 23 24 28 31 32 37 42 43 41 40 39 37 37 35 31 30 30 30 31 30 28 27 26 24 20 13 10 14 20 18 15 18 22
9 11 12 13 14 15 16 16 17 18 19 19 19 20 20 21 21 20 20 20 20 20 20 21 20 20 21 21 22 23 23 23 26 28 30 33 38 43 44 43 43 40 37 35 33 31 30 31 33 32 30 29 28 26 24 20 13 12 16 19 20 21 23
11 12 13 14 15 17 17 16 17 17 18 20 20 20 21 22 22 22 21 21 22 22 22 22 21 21 22 22 22 23 24 24 25 26 27 29 33 39 44 45 44 43 41 37 34 32 31 31 32 33 32 30 29 27 26 24 17 11 13 15 21 24 26
13 14 14 16 17 17 17 17 17 17 19 20 21 21 21 22 22 22 23 23 23 23 24 24 23 23 23 24 23 24 25 25 26 25 25 27 30 33 39 43 42 42 43 40 36 34 34 32 32 34 33 31 29 28 27 27 19 14 15 14 18 23 27
14 15 16 18 18 18 18 18 18 19 20 20 21 22 22 22 23 23 23 24 24 25 25 25 25 25 25 25 25 25 25 26 27 27 26 27 28 30 34 38 41 41 41 41 38 36 34 32 33 36 35 32 30 27 27 29 23 16 17 16 18 22 26
15 16 18 20 21 21 22 21 20 21 22 22 22 23 23 23 24 25 26 26 26 26 26 25 26 27 27 28 28 27 26 27 29 29 28 27 28 30 33 35 38 40 40 40 39 37 35 32 33 36 34 32 31 27 26 27 25 22 21 18 18 21 24
16 17 20 22 22 23 24 24 23 23 24 24 24 24 24 24 25 26 27 27 27 27 27 27 27 27 27 28 29 29 28 28 29 30 30 29 28 30 33 34 35 38 39 38 39 39 38 34 32 34 34 31 29 27 25 24 26 28 26 23 21 21 22
17 18 20 22 23 25 26 26 25 26 27 26 26 25 25 25 26 27 27 27 28 28 28 28 28 28 28 28 29 30 30 29 29 31 31 31 30 30 33 35 36 38 39 39 39 41 41 37 32 31 32 31 28 26 25 24 25 29 29 28 27 25 25
18 19 20 22 23 25 26 26 27 27 27 28 28 27 26 27 27 28 28 28 28 29 29 29 30 29 29 29 29 29 30 30 30 31 32 32 31 31 32 35 37 40 41 41 43 42 42 41 35 30 31 31 27 26 28 26 26 27 29 29 28 27 28
18 20 22 24 24 24 26 29 30 28 27 28 30 29 28 28 29 29 29 30 29 29 30 30 31 31 30 31 31 30 31 32 32 31 32 33 33 32 33 34 38 42 43 43 45 45 43 43 38 32 32 32 28 29 31 29 26 25 27 29 28 28 27
19 21 23 25 24 25 27 29 29 28 27 28 30 30 29 29 30 31 31 31 31 30 30 31 31 32 31 31 31 31 31 33 33 31 32 33 33 33 33 34 38 43 44 43 45 46 45 44 41 36 34 32 30 31 32 31 29 26 25 23 22 25 25
20 22 23 24 24 25 27 27 27 27 28 29 29 29 29 30 31 31 32 33 33 32 32 32 33 34 35 33 31 31 31 32 33 31 31 33 33 34 34 34 39 43 43 43 45 46 46 45 44 41 37 34 33 34 33 33 32 31 29 23 23 29 27
20 22 23 24 25 26 27 28 28 29 30 30 30 30 30 31 31 31 32 33 34 35 34 33 34 36 38 38 36 34 31 31 32 31 32 33 33 33 32 33 39 42 42 44 46 48 48 47 46 44 39 36 37 37 37 35 33 34 32 27 28 33 31
21 23 24 26 27 27 28 29 29 30 31 31 32 32 31 32 32 31 31 32 34 36 36 36 36 37 38 39 40 40 36 32 31 31 33 33 33 32 31 33 39 40 40 43 45 47 49 47 47 46 41 39 39 40 42 41 38 38 38 34 32 31 31
22 24 26 27 28 27 28 29 29 30 31 32 33 33 33 33 33 32 32 33 34 35 36 36 37 38 40 40 41 43 41 36 33 32 32 33 33 32 31 33 37 37 37 40 42 45 48 48 47 46 41 38 38 40 42 44 43 43 45 45 42 39 39
22 25 28 28 27 27 28 28 29 29 30 31 31 32 32 33 33 33 33 33 34 35 36 36 37 39 41 42 43 44 43 39 35 33 33 33 33 33 33 33 34 35 37 39 41 43 44 44 44 42 39 37 38 40 41 42 43 43 45 47 47 47 49
22 27 28 27 26 27 28 28 29 30 29 29 29 30 31 32 33 33 33 33 34 34 35 36 37 39 40 42 43 44 43 39 37 36 34 33 33 34 36 35 34 36 38 39 41 42 41 41 39 37 35 35 36 37 37 38 40 40 41 43 45 47 47
23 27 28 26 26 27 28 29 30 29 29 28 28 29 30 31 32 33 33 33 33 34 35 36 38 39 41 41 43 44 43 40 38 37 35 34 35 36 37 36 36 38 40 40 41 41 41 40 37 35 34 34 33 33 32 33 36 37 37 38 39 40 40
23 27 27 26 26 27 28 29 29 27 27 26 27 28 30 31 31 32 33 33 32 33 34 36 39 40 41 42 43 44 42 39 38 39 36 33 34 34 33 36 39 40 41 42 42 41 41 39 36 36 36 35 33 32 29 28 29 30 30 31 32 33 35
21 26 26 25 26 27 28 29 28 26 25 27 28 30 30 31 31 32 32 33 33 32 32 34 36 39 40 42 43 43 39 36 37 38 35 31 30 29 29 34 41 43 44 45 44 42 43 41 37 38 39 37 35 32 30 28 28 26 24 24 25 25 26
20 24 25 24 25 28 29 28 27 26 27 29 31 31 30 29 31 32 32 32 32 32 33 33 34 36 37 40 43 41 37 35 36 34 31 29 29 29 29 33 40 44 45 46 45 44 44 43 41 40 41 40 38 35 33 33 33 32 30 27 26 25 26
19 22 23 23 25 27 28 28 29 30 30 31 31 30 27 25 26 27 27 28 28 29 31 31 32 34 36 39 43 41 37 36 36 30 26 28 28 28 29 31 36 41 44 46 46 45 44 45 44 43 43 43 42 39 36 36 36 36 36 35 34 34 34
17 19 20 22 24 28 29 30 31 32 32 31 30 27 24 21 20 18 17 20 23 26 27 27 27 31 35 37 41 42 39 37 33 26 24 26 28 29 29 30 33 38 41 44 46 46 45 44 44 45 44 44 43 42 41 40 39 39 40 41 41 40 39
15 16 19 21 25 31 32 31 31 32 31 29 27 25 21 18 16 14 10 10 15 19 22 23 24 28 33 35 39 42 39 33 30 28 27 26 27 29 30 31 33 36 39 42 45 45 44 43 43 44 43 42 42 43 44 45 44 46 47 46 44 42 38
15 15 19 24 27 32 34 32 31 31 29 27 25 23 20 18 15 13 12 9 7 10 14 18 20 22 27 32 37 41 38 30 29 34 34 30 28 29 30 32 34 35 38 42 44 43 42 41 41 41 40 40 42 44 46 48 49 50 49 46 43 39 33
18 16 19 25 29 31 33 32 30 29 27 26 24 22 20 17 15 14 13 13 9 4 7 12 15 17 20 24 29 34 34 30 30 33 33 31 31 30 31 33 35 36 39 42 43 41 40 40 39 39 39 42 45 45 45 45 47 49 46 42 38 33 27
Wind_Direction
319 317 316 313 311 311 313 314 313 311 308 303 297 291 288 284 274 259 250 247 243 242 241 238 235 227 221 219 216 217 219 216 211 211 208 198 202 210 213 217 224 227 220 212 212 213 210 203 199 207 214 213 216 222 225 223 217 218 222 216 208 207 207
319 317 314 314 311 310 309 310 310 309 307 304 300 291 281 279 281 271 260 256 250 246 244 241 238 233 226 219 215 215 218 218 215 214 212 208 208 208 203 207 216 220 223 228 224 220 227 224 195 196 201 201 211 222 227 225 221 222 222 216 209 205 207
319 318 315 314 316 314 309 309 309 305 304 303 301 297 285 275 276 276 269 262 256 252 248 246 243 237 232 226 221 219 219 218 218 216 216 216 216 210 203 202 206 211 217 223 223 219 220 223 221 201 192 194 203 213 219 221 220 221 220 216 212 207 211
316 318 317 315 318 319 314 311 308 304 301 297 295 295 292 283 274 273 272 265 260 258 253 250 246 241 237 233 229 227 225 222 220 218 217 219 220 215 210 206 204 206 208 212 214 210 208 213 216 206 195 198 202 201 203 211 217 217 214 215 213 211 214
314 314 313 313 316 317 314 313 309 303 298 294 292 289 288 289 282 274 272 266 261 259 257 253 249 245 242 239 235 231 226 223 220 217 216 217 218 217 214 211 209 207 207 208 209 206 207 210 208 209 201 196 200 197 188 192 205 211 210 210 211 211 210
309 309 308 309 312 312 312 311 308 304 299 294 290 287 285 284 283 278 273 269 262 259 258 256 254 250 247 245 241 232 225 223 220 218 217 216 216 216 216 215 212 208 207 208 208 206 208 210 210 213 205 193 197 194 182 182 188 193 202 205 203 202 200
305 305 305 305 306 307 307 306 304 301 297 294 290 287 285 281 278 276 273 271 267 262 258 256 256 255 253 251 248 240 229 225 223 220 219 218 217 215 215 216 214 212 212 209 207 206 205 207 210 213 208 199 199 194 185 186 187 183 183 192 195 195 198
303 300 299 299 300 301 302 301 300 298 295 293 290 287 284 280 275 272 271 270 267 265 261 256 254 255 257 256 254 249 240 232 226 222 221 220 218 217 216 216 216 216 216 211 208 207 207 209 210 209 206 202 201 199 190 188 195 195 182 176 196 205 205
299 297 294 292 295 296 297 296 295 295 293 291 290 288 285 280 275 270 267 266 264 264 262 257 253 252 255 258 257 253 248 241 231 223 222 221 220 218 217 216 214 215 216 212 210 210 209 210 210 208 207 206 204 201 195 193 199 198 184 175 189 204 204
295 293 291 291 293 291 292 293 293 292 291 290 289 288 286 281 276 270 265 263 262 262 260 257 255 252 251 254 257 256 251 246 239 230 223 222 220 218 217 216 214 214 216 215 212 212 210 209 209 210 211 213 212 207 200 199 199 191 185 184 182 186 192
294 290 289 290 291 290 290 290 291 291 289 288 287 286 285 282 278 272 266 262 260 258 258 258 256 253 250 251 253 255 254 249 246 239 228 222 220 218 217 216 215 215 216 216 214 212 210 208 209 211 214 216 217 216 209 203 200 192 187 188 188 187 187
294 291 289 290 290 288 288 288 288 289 288 287 285 283 283 281 278 274 268 264 260 257 258 257 256 254 249 248 249 252 253 250 249 247 238 226 220 218 217 215 215 215 214 215 217 213 209 210 212 213 215 216 218 219 214 209 208 192 182 180 185 194 193
295 292 290 290 290 288 287 286 285 285 286 286 283 280 280 279 277 274 269 266 262 258 256 255 255 254 250 246 244 247 250 249 248 247 245 236 223 217 216 216 216 215 213 214 217 214 210 212 213 214 216 216 217 218 215 216 217 189 174 175 176 184 191
296 294 290 289 291 289 287 285 283 283 284 283 281 279 277 275 274 272 269 266 263 259 256 253 251 252 252 247 242 243 246 247 247 245 243 242 233 221 216 216 218 217 215 215 216 213 210 210 210 213 216 216 217 216 214 218 216 176 158 169 171 175 184
297 293 291 291 291 289 287 285 284 282 281 280 280 278 275 273 272 270 267 264 262 260 256 253 250 248 250 248 242 240 241 243 245 245 241 241 239 231 220 215 216 216 215 215 215 213 211 209 208 213 216 215 217 216 212 215 210 168 149 158 160 165 175
297 293 292 292 290 290 289 288 286 283 280 280 279 277 275 272 269 267 265 262 259 258 256 253 250 247 246 247 243 238 238 240 242 243 242 239 237 236 228 219 214 213 212 212 213 212 211 210 210 215 218 215 216 214 209 213 209 171 149 157 161 160 168
297 293 293 292 291 291 291 291 288 284 282 280 278 276 275 272 269 265 263 260 257 256 255 253 250 247 245 245 244 239 237 238 240 240 241 239 236 234 232 225 216 212 210 210 210 207 208 212 212 215 219 217 215 212 206 207 203 178 155 153 162 165 167
297 295 295 294 294 294 294 292 289 286 283 281 278 277 275 272 269 265 262 260 258 255 254 253 250 248 245 243 243 240 237 237 239 240 240 239 236 233 232 229 221 213 209 207 207 204 205 211 214 215 217 215 212 210 203 199 195 186 170 155 156 163 165
298 298 298 296 296 296 295 294 290 287 284 282 279 276 274 272 269 267 264 261 258 256 254 252 250 249 246 243 242 239 237 237 237 238 239 238 236 233 231 229 224 217 211 207 206 204 203 208 213 214 213 212 210 205 198 193 190 186 176 163 158 158 163
301 301 300 299 299 297 295 294 292 288 284 282 279 275 273 272 270 268 265 262 259 256 254 252 250 249 247 244 242 238 236 235 236 237 237 236 235 233 230 228 224 220 215 210 207 206 204 206 210 210 208 209 207 197 191 189 185 179 172 166 163 161 164
304 303 303 302 301 298 296 295 293 289 284 281 278 275 274 273 271 269 265 263 260 256 253 251 249 247 246 244 242 239 235 233 233 235 236 235 234 233 230 227 225 222 218 214 211 209 207 206 207 209 209 207 201 192 189 187 179 173 169 165 165 165 163
306 305 305 305 303 300 298 297 294 289 284 282 279 276 275 273 271 269 266 262 259 256 252 249 246 244 242 241 240 239 236 232 230 231 234 235 232 231 229 227 226 225 221 217 213 212 212 209 207 208 209 205 196 189 188 184 177 170 166 161 159 163 164
310 310 310 308 306 303 301 297 293 289 286 282 280 278 276 274 271 269 265 262 259 256 252 248 245 241 239 238 238 238 236 232 228 227 231 233 232 231 228 226 228 227 222 218 215 214 213 211 209 210 209 204 196 189 185 181 178 174 171 165 161 163 167
317 316 314 311 308 305 302 297 293 290 287 283 280 278 277 274 272 268 264 262 258 255 252 248 245 241 239 237 237 238 237 233 227 225 228 230 231 230 227 225 227 227 223 219 217 215 214 213 212 211 210 206 201 197 192 183 177 176 175 171 170 171 174
322 319 315 312 308 305 302 298 294 290 287 283 280 279 277 274 272 269 265 262 258 255 253 250 246 242 239 236 234 236 238 235 229 224 225 227 229 229 226 223 225 226 222 218 215 214 215 215 214 213 212 210 207 206 205 198 190 185 181 177 176 179 184
323 320 316 312 309 306 302 298 295 291 288 286 283 280 278 275 273 270 266 262 259 255 253 251 248 244 240 237 235 235 237 236 232 225 222 224 226 226 224 221 222 223 220 217 213 211 210 211 211 211 211 211 209 209 211 210 209 205 196 189 187 190 194
323 321 318 314 310 308 305 302 299 296 292 289 285 281 278 276 273 270 266 262 259 256 253 251 249 245 241 238 237 236 235 235 234 228 223 223 224 224 222 218 216 216 216 214 211 208 206 205 204 204 205 206 206 207 208 209 213 213 205 200 202 204 203
326 324 321 317 313 310 308 305 302 298 294 289 284 281 279 277 273 270 266 262 259 255 253 251 249 246 243 239 236 235 234 232 232 229 225 224 225 226 224 217 211 211 213 211 209 207 205 203 199 195 196 198 198 199 200 200 203 204 203 205 209 209 205
327 328 325 320 315 313 311 306 301 298 294 290 285 281 279 276 273 269 265 261 257 255 253 252 250 245 242 238 234 233 233 231 229 228 226 225 226 227 224 216 209 209 211 210 208 207 205 201 193 184 184 186 186 186 187 191 196 199 201 203 204 203 201
327 331 328 322 319 316 312 306 302 299 297 293 289 284 280 276 272 268 264 259 255 254 254 253 251 246 240 236 232 229 229 229 227 226 224 223 224 223 219 214 210 210 211 210 208 206 204 199 188 177 174 172 170 172 175 181 190 196 199 201 199 200 199
326 331 330 325 322 318 314 311 308 305 301 298 295 290 285 280 273 266 261 257 253 252 254 253 250 244 238 234 230 226 225 226 224 223 221 218 218 216 215 215 214 212 211 210 207 203 201 197 187 176 172 167 162 163 167 171 175 178 182 185 185 188 190
325 332 331 327 323 320 318 318 315 312 308 303 299 296 292 286 277 266 258 254 250 248 250 253 250 244 237 234 229 222 221 222 220 217 213 208 208 210 209 211 212 212 211 209 204 199 197 194 186 177 172 167 160 158 162 167 168 165 163 162 163 163 165
327 332 331 327 324 324 325 326 324 321 316 310 305 303 301 299 291 274 256 251 250 247 246 247 249 245 239 234 228 219 216 219 217 209 200 196 195 198 201 205 208 209 208 206 201 195 191 190 184 175 171 168 163 159 160 163 165 163 158 154 151 150 150
328 333 333 330 329 331 333 332 329 326 321 316 310 306 308 315 313 297 268 252 249 247 244 241 242 243 239 233 226 218 214 216 211 197 186 188 189 190 194 198 201 203 204 202 198 190 186 187 184 177 173 174 173 169 163 159 158 157 151 146 143 143 144
327 333 337 336 335 337 337 335 332 329 325 321 315 310 315 327 331 325 307 269 245 240 238 234 235 240 236 228 222 216 211 209 203 189 182 183 185 188 193 194 196 199 200 196 190 183 180 181 179 176 175 176 174 169 161 155 151 148 144 140 138 138 138
325 331 340 343 341 340 339 337 334 331 330 328 323 317 321 334 340 337 333 319 275 234 222 219 224 230 226 220 217 212 206 202 198 192 187 184 183 186 189 191 192 193 190 184 179 175 174 174 173 171 171 169 165 161 156 151 147 144 140 138 136 134 134
325 328 339 346 345 342 341 339 335 333 336 337 333 327 327 336 343 343 340 334 324 287 218 209 211 216 217 213 208 203 199 197 193 189 186 183 183 184 185 186 186 183 178 174 171 170 171 171 169 168 165 160 154 150 147 145 143 139 136 134 132 130 130